Weather History for Franklin, VA

Change the Weather History Date:

Wednesday, February 20, 2013

  Actual Average (KSFQ) Record (KSFQ)
Temperature  
Mean Temperature 42 °F -  
Max Temperature 50 °F 53 °F 74 °F (1991)
Min Temperature 33 °F 34 °F 15 °F (1979)
Degree Days  
Heating Degree Days 24    
Moisture  
Dew Point 21 °F    
Average Humidity 48    
Maximum Humidity 87    
Minimum Humidity 24    
Precipitation  
Precipitation 0.00 in - - ()
Sea Level Pressure  
Sea Level Pressure 30.02 in    
Wind  
Wind Speed 8 mph (WNW)    
Max Wind Speed 18 mph    
Max Gust Speed 24 mph    
Visibility 10 miles    
Events      
Averages and records for this station are not official NWS values.
T = Trace of Precipitation, MM = Missing Value Source: NWS Daily Summary

Daily Weather History Graph

Daily Weather History Graph

Search for Another Location

Airport:

Trip Planner

Search our weather history database for the weather conditions in past years. The results will help you decide how hot, cold, wet, or windy it might be!

Date:

Astronomy

Feb. 20, 2013 Rise Set
Actual Time 6:49 AM EST 5:53 PM EST
Civil Twilight 6:23 AM EST 6:19 PM EST
Nautical Twilight 5:53 AM EST 6:49 PM EST
Astronomical Twilight 5:23 AM EST 7:19 PM EST
Moon 1:17 PM EST (2/20) 3:03 AM EST (2/20)
Length of Visible Light 11h 56m
Length of Day
11h 03m
Waxing Gibbous, 76% of the Moon is Illuminated
Feb 20
Waxing Gibbous
Feb 25
Full
Mar 4
Last Quarter
Mar 11
New
Mar 19
First Quarter

Hourly Weather History & Observations

Time (EST) Temp. Windchill Dew Point Humidity Pressure Visibility Wind Dir Wind Speed Gust Speed Precip Events Conditions
12:15 AM 44.6 °F 40.2 °F 41.0 °F 87% 29.90 in 10.0 mi West 8.1 mph - N/A   Clear
12:35 AM 44.6 °F 39.2 °F 41.0 °F 87% 29.90 in 10.0 mi West 10.4 mph - N/A   Clear
1:15 AM 42.8 °F 37.0 °F 39.2 °F 87% 29.91 in 10.0 mi West 10.4 mph - N/A   Clear
1:35 AM 42.8 °F 38.6 °F 37.4 °F 81% 29.92 in 10.0 mi West 6.9 mph - N/A   Clear
1:55 AM 42.8 °F 37.5 °F 37.4 °F 81% 29.92 in 10.0 mi West 9.2 mph - N/A   Clear
2:15 AM 42.8 °F 38.6 °F 35.6 °F 76% 29.93 in 10.0 mi West 6.9 mph - N/A   Clear
2:35 AM 41.0 °F 35.8 °F 33.8 °F 76% 29.94 in 10.0 mi West 8.1 mph - N/A   Clear
2:55 AM 39.2 °F 34.2 °F 32.0 °F 75% 29.94 in 10.0 mi West 6.9 mph - N/A   Clear
3:15 AM 39.2 °F 33.0 °F 30.2 °F 70% 29.94 in 10.0 mi WNW 9.2 mph - N/A   Clear
3:35 AM 39.2 °F 35.0 °F 28.4 °F 65% 29.94 in 10.0 mi West 5.8 mph - N/A   Clear
3:55 AM 37.4 °F 32.8 °F 28.4 °F 70% 29.95 in 10.0 mi West 5.8 mph - N/A   Clear
4:15 AM 37.4 °F 33.8 °F 26.6 °F 65% 29.95 in 10.0 mi West 4.6 mph - N/A   Clear
4:35 AM 37.4 °F 31.4 °F 26.6 °F 65% 29.96 in 10.0 mi West 8.1 mph - N/A   Clear
4:55 AM 37.4 °F 30.8 °F 24.8 °F 60% 29.97 in 10.0 mi West 9.2 mph - N/A   Clear
5:15 AM 37.4 °F 31.4 °F 24.8 °F 60% 29.98 in 10.0 mi West 8.1 mph - N/A   Clear
5:35 AM 37.4 °F 32.1 °F 24.8 °F 60% 29.99 in 10.0 mi West 6.9 mph - N/A   Clear
5:55 AM 37.4 °F 31.4 °F 21.2 °F 52% 29.99 in 10.0 mi West 8.1 mph - N/A   Clear
6:15 AM 35.6 °F 28.6 °F 21.2 °F 56% 30.00 in 10.0 mi West 9.2 mph - N/A   Clear
6:35 AM 35.6 °F 29.9 °F 21.2 °F 56% 30.01 in 10.0 mi West 6.9 mph - N/A   Clear
7:15 AM 35.6 °F 27.5 °F 19.4 °F 52% 30.03 in 10.0 mi West 11.5 mph - N/A   Clear
7:35 AM 37.4 °F 30.8 °F 19.4 °F 48% 30.04 in 10.0 mi West 9.2 mph - N/A   Clear
7:55 AM 37.4 °F 32.1 °F 19.4 °F 48% 30.04 in 10.0 mi West 6.9 mph - N/A   Clear
8:15 AM 39.2 °F 34.2 °F 21.2 °F 49% 30.05 in 10.0 mi West 6.9 mph - N/A   Clear
9:15 AM 42.8 °F 34.8 °F 19.4 °F 39% 30.05 in 10.0 mi West 17.3 mph 23.0 mph N/A   Clear
9:35 AM 42.8 °F 36.6 °F 17.6 °F 36% 30.05 in 10.0 mi WNW 11.5 mph 24.2 mph N/A   Clear
10:15 AM 44.6 °F 37.8 °F 14.0 °F 29% 30.05 in 10.0 mi West 15.0 mph 21.9 mph N/A   Clear
10:35 AM 44.6 °F 37.8 °F 14.0 °F 29% 30.05 in 10.0 mi West 15.0 mph 19.6 mph N/A   Clear
10:55 AM 44.6 °F 38.8 °F 15.8 °F 31% 30.05 in 10.0 mi WNW 11.5 mph 20.7 mph N/A   Clear
11:15 AM 46.4 °F 40.7 °F 15.8 °F 29% 30.05 in 10.0 mi West 12.7 mph 17.3 mph N/A   Clear
11:35 AM 46.4 °F 41.9 °F 15.8 °F 29% 30.04 in 10.0 mi West 9.2 mph 19.6 mph N/A   Clear
11:55 AM 46.4 °F 40.7 °F 15.8 °F 29% 30.04 in 10.0 mi West 12.7 mph - N/A   Clear
12:15 PM 46.4 °F 40.7 °F 15.8 °F 29% 30.03 in 10.0 mi West 12.7 mph 23.0 mph N/A   Clear
12:35 PM 46.4 °F 41.9 °F 15.8 °F 29% 30.02 in 10.0 mi West 9.2 mph 21.9 mph N/A   Clear
12:55 PM 46.4 °F 41.5 °F 14.0 °F 27% 30.01 in 10.0 mi West 10.4 mph 18.4 mph N/A   Clear
1:15 PM 48.2 °F - 15.8 °F 27% 30.01 in 10.0 mi West 10.4 mph 18.4 mph N/A   Clear
1:35 PM 48.2 °F - 15.8 °F 27% 30.01 in 10.0 mi West 15.0 mph 18.4 mph N/A   Clear
1:55 PM 48.2 °F - 15.8 °F 27% 30.00 in 10.0 mi WNW 9.2 mph 19.6 mph N/A   Clear
2:15 PM 48.2 °F - 15.8 °F 27% 30.00 in 10.0 mi WSW 11.5 mph 20.7 mph N/A   Clear
2:35 PM 48.2 °F - 15.8 °F 27% 29.99 in 10.0 mi West 11.5 mph 20.7 mph N/A   Clear
3:15 PM 50.0 °F - 14.0 °F 24% 29.99 in 10.0 mi West 18.4 mph 24.2 mph N/A   Clear
3:55 PM 50.0 °F - 14.0 °F 24% 29.99 in 10.0 mi West 12.7 mph 24.2 mph N/A   Clear
4:15 PM 48.2 °F - 12.2 °F 24% 30.00 in 10.0 mi WNW 15.0 mph 20.7 mph N/A   Clear
4:35 PM 48.2 °F - 14.0 °F 25% 30.00 in 10.0 mi West 10.4 mph - N/A   Clear
4:55 PM 48.2 °F - 14.0 °F 25% 30.01 in 10.0 mi WNW 10.4 mph 19.6 mph N/A   Clear
5:15 PM 48.2 °F - 14.0 °F 25% 30.02 in 10.0 mi WNW 10.4 mph 18.4 mph N/A   Clear
5:35 PM 44.6 °F 40.7 °F 14.0 °F 29% 30.02 in 10.0 mi WNW 6.9 mph - N/A   Clear
5:55 PM 44.6 °F 41.4 °F 15.8 °F 31% 30.03 in 10.0 mi WNW 5.8 mph - N/A   Clear
6:15 PM 42.8 °F 40.1 °F 15.8 °F 34% 30.04 in 10.0 mi NW 4.6 mph - N/A   Clear
6:35 PM 44.6 °F 43.1 °F 15.8 °F 31% 30.05 in 10.0 mi WNW 3.5 mph - N/A   Clear
6:55 PM 41.0 °F - 17.6 °F 39% 30.06 in 10.0 mi Calm Calm - N/A   Clear
7:15 PM 35.6 °F - 21.2 °F 56% 30.07 in 10.0 mi Calm Calm - N/A   Clear
7:35 PM 37.4 °F - 21.2 °F 52% 30.07 in 10.0 mi Calm Calm - N/A   Clear
7:55 PM 35.6 °F - 21.2 °F 56% 30.07 in 10.0 mi Calm Calm - N/A   Clear
8:15 PM 35.6 °F - 21.2 °F 56% 30.07 in 10.0 mi Calm Calm - N/A   Clear
8:35 PM 33.8 °F - 21.2 °F 60% 30.09 in 10.0 mi Calm Calm - N/A   Clear
8:55 PM 33.8 °F - 23.0 °F 65% 30.09 in 10.0 mi Calm Calm - N/A   Clear
9:15 PM 39.2 °F 37.0 °F 15.8 °F 39% 30.10 in 10.0 mi NNW 3.5 mph - N/A   Clear
9:35 PM 39.2 °F 34.2 °F 14.0 °F 36% 30.10 in 10.0 mi NNW 6.9 mph - N/A   Clear
9:55 PM 41.0 °F 36.4 °F 14.0 °F 33% 30.12 in 10.0 mi NW 6.9 mph - N/A   Clear
10:15 PM 39.2 °F 32.5 °F 17.6 °F 42% 30.13 in 10.0 mi North 10.4 mph 16.1 mph N/A   Clear
10:35 PM 37.4 °F 33.8 °F 21.2 °F 52% 30.13 in 10.0 mi NNE 4.6 mph - N/A   Clear
10:55 PM 35.6 °F 32.8 °F 23.0 °F 60% 30.14 in 10.0 mi NNE 3.5 mph - N/A   Clear
11:15 PM 35.6 °F - 23.0 °F 60% 30.14 in 10.0 mi Calm Calm - N/A   Clear
11:35 PM 35.6 °F - 24.8 °F 65% 30.13 in 10.0 mi Calm Calm - N/A   Clear
11:55 PM 35.6 °F 32.8 °F 23.0 °F 60% 30.14 in 10.0 mi NNE 3.5 mph - N/A   Clear